Merweborg — PDBM — position and weather

sailwx.info

Track history (hours):
 
Tides and Currents Weather Stations Pressure Air Temp Water Temp Dewpoint Dewpoint Depression Visibility Wind Speed Wind Dir Waves Ship Positions

Merweborg

Last reported at 2017-Nov-18 18:40 UTC. Time now 2017-Nov-20 00:28 UTC.
Position N 32°17' W 009°19'.

Length 135 m; draft 5 m.

Type: Ship. MMSI: 244860325.

Date/timePositionNaut miles runAvg speedWind from/ knotsBaromVisibWave heightAir tempDewpointWater temp
2017-Nov-18 18:40N 32°17' W 009°19'0 0.0
2017-Nov-18 18:28N 32°17' W 009°19'  
2017-Nov-12 19:45N 30°26' W 009°41'0 0.0
2017-Nov-12 19:18N 30°26' W 009°41'0 0.0
2017-Nov-12 18:51N 30°26' W 009°41'0 0.0
2017-Nov-12 18:18N 30°26' W 009°41'0 0.0
2017-Nov-12 17:51N 30°26' W 009°41'67 8.9
2017-Nov-12 10:23N 31°31' W 009°57'3 4.5
2017-Nov-12 09:43N 31°34' W 009°57'2811.2
2017-Nov-12 07:11N 32°02' W 009°58'211.6
2017-Nov-12 07:00N 32°04' W 009°58'611.7
2017-Nov-12 06:30N 32°10' W 009°58'28111.2
2017-Nov-11 05:29N 36°51' W 010°02'511.2
2017-Nov-11 05:00N 36°57' W 010°02'611.3
2017-Nov-11 04:30N 37°02' W 010°02'611.3
2017-Nov-11 04:00N 37°08' W 010°03'611.5
2017-Nov-11 03:30N 37°14' W 010°03'611.5
2017-Nov-11 02:59N 37°20' W 010°03'511.2
2017-Nov-11 02:30N 37°25' W 010°03'510.9
2017-Nov-11 02:00N 37°31' W 010°04'510.7
2017-Nov-11 01:30N 37°36' W 010°04'511.0
2017-Nov-11 01:00N 37°41' W 010°04'911.0
2017-Nov-11 00:11N 37°50' W 010°04'410.8
2017-Nov-10 23:52N 37°54' W 010°04'411.1
2017-Nov-10 23:30N 37°58' W 010°05'511.2
2017-Nov-10 23:00N 38°03' W 010°04'611.4
2017-Nov-10 22:30N 38°09' W 010°04'611.3
2017-Nov-10 22:00N 38°15' W 010°04'611.2
2017-Nov-10 21:30N 38°21' W 010°04'611.2
2017-Nov-10 21:00N 38°26' W 010°05'611.2
2017-Nov-10 20:30N 38°32' W 010°05'611.2
2017-Nov-10 20:00N 38°37' W 010°05'510.8
2017-Nov-10 19:30N 38°43' W 010°07'511.0
2017-Nov-10 19:01N 38°48' W 010°07'611.2
2017-Nov-10 18:30N 38°54' W 010°06'611.0
2017-Nov-10 18:00N 38°59' W 010°07'510.9
2017-Nov-10 17:30N 39°05' W 010°07'611.0
2017-Nov-10 17:00N 39°10' W 010°07'611.4
2017-Nov-10 16:30N 39°16' W 010°07'611.8
2017-Nov-10 16:00N 39°22' W 010°07'  
Track history (hours):
 
Tides and Currents Weather Stations Pressure Air Temp Water Temp Dewpoint Dewpoint Depression Visibility Wind Speed Wind Dir Waves Ship Positions

Merweborg

Last reported at 2017-Nov-18 18:40 UTC. Time now 2017-Nov-20 00:28 UTC.
Position N 32°17' W 009°19'.

Length 135 m; draft 5 m.

Type: Ship. MMSI: 244860325.

Date/timePositionNaut miles runAvg speedWind from/ knotsBaromVisibWave heightAir tempDewpointWater temp
2017-Nov-18 18:40N 32°17' W 009°19'0 0.0
2017-Nov-18 18:28N 32°17' W 009°19'  
2017-Nov-12 19:45N 30°26' W 009°41'0 0.0
2017-Nov-12 19:18N 30°26' W 009°41'0 0.0
2017-Nov-12 18:51N 30°26' W 009°41'0 0.0
2017-Nov-12 18:18N 30°26' W 009°41'0 0.0
2017-Nov-12 17:51N 30°26' W 009°41'67 8.9
2017-Nov-12 10:23N 31°31' W 009°57'3 4.5
2017-Nov-12 09:43N 31°34' W 009°57'2811.2
2017-Nov-12 07:11N 32°02' W 009°58'211.6
2017-Nov-12 07:00N 32°04' W 009°58'611.7
2017-Nov-12 06:30N 32°10' W 009°58'28111.2
2017-Nov-11 05:29N 36°51' W 010°02'511.2
2017-Nov-11 05:00N 36°57' W 010°02'611.3
2017-Nov-11 04:30N 37°02' W 010°02'611.3
2017-Nov-11 04:00N 37°08' W 010°03'611.5
2017-Nov-11 03:30N 37°14' W 010°03'611.5
2017-Nov-11 02:59N 37°20' W 010°03'511.2
2017-Nov-11 02:30N 37°25' W 010°03'510.9
2017-Nov-11 02:00N 37°31' W 010°04'510.7
2017-Nov-11 01:30N 37°36' W 010°04'511.0
2017-Nov-11 01:00N 37°41' W 010°04'911.0
2017-Nov-11 00:11N 37°50' W 010°04'410.8
2017-Nov-10 23:52N 37°54' W 010°04'411.1
2017-Nov-10 23:30N 37°58' W 010°05'511.2
2017-Nov-10 23:00N 38°03' W 010°04'611.4
2017-Nov-10 22:30N 38°09' W 010°04'611.3
2017-Nov-10 22:00N 38°15' W 010°04'611.2
2017-Nov-10 21:30N 38°21' W 010°04'611.2
2017-Nov-10 21:00N 38°26' W 010°05'611.2
2017-Nov-10 20:30N 38°32' W 010°05'611.2
2017-Nov-10 20:00N 38°37' W 010°05'510.8
2017-Nov-10 19:30N 38°43' W 010°07'511.0
2017-Nov-10 19:01N 38°48' W 010°07'611.2
2017-Nov-10 18:30N 38°54' W 010°06'611.0
2017-Nov-10 18:00N 38°59' W 010°07'510.9
2017-Nov-10 17:30N 39°05' W 010°07'611.0
2017-Nov-10 17:00N 39°10' W 010°07'611.4
2017-Nov-10 16:30N 39°16' W 010°07'611.8
2017-Nov-10 16:00N 39°22' W 010°07'  

Dump ship's entire track history